Temperature
10 10 10 10 10 10 9 9 9 9 9 8 8 8 8 7 7 7 7 6 6 6 6 6 5 5 5 4 4 3 3 2 2 2 2 2 2 2 2 2 2 2 2
10 10 10 9 9 9 9 9 8 8 8 8 8 7 7 7 6 6 6 6 6 6 5 5 5 5 4 4 3 3 2 2 1 1 2 1 1 1 1 1 1 1 1
9 9 9 9 9 9 8 8 8 8 7 7 7 6 6 6 6 6 6 5 5 5 5 5 4 4 3 3 3 2 2 1 1 1 1 1 1 0 1 1 1 1 1
8 8 8 8 8 8 8 7 7 7 7 6 6 6 6 5 5 5 5 5 4 4 4 4 4 3 3 2 2 2 1 1 1 0 0 0 0 -0 -0 -0 0 0 0
8 8 7 7 7 7 6 6 6 6 6 6 5 5 5 5 5 4 4 4 4 4 3 3 3 2 2 2 1 1 1 0 0 0 -0 -0 -1 -1 -1 -1 -1 -1 -0
7 7 7 6 6 6 6 5 5 5 5 5 5 4 4 4 4 4 3 3 3 3 3 2 2 2 1 1 1 0 -0 -0 -0 -1 -1 -1 -1 -2 -2 -2 -2 -2 -2
6 6 6 6 5 5 5 5 5 5 4 4 4 4 4 3 3 3 3 2 2 2 2 2 1 1 1 0 0 -0 -0 -1 -1 -1 -1 -2 -2 -2 -2 -3 -3 -3 -3
5 5 5 5 5 4 4 4 4 4 4 3 3 3 3 3 2 2 2 2 1 1 1 1 0 0 -0 -0 -1 -1 -1 -1 -1 -2 -2 -2 -2 -2 -3 -3 -3 -3 -3
4 4 4 4 4 4 3 3 3 3 3 3 2 2 2 2 2 2 1 1 1 0 0 -0 -1 -1 -1 -1 -1 -1 -1 -1 -2 -2 -2 -2 -2 -2 -3 -3 -3 -4 -4
4 3 3 3 3 3 3 3 2 2 2 2 2 2 2 1 1 1 0 -0 -0 -0 -1 -1 -1 -1 -2 -2 -2 -2 -2 -2 -2 -2 -2 -2 -2 -2 -3 -3 -4 -4 -5
3 3 3 2 2 2 2 2 2 2 1 1 1 1 1 1 0 0 -1 -1 -1 -1 -1 -1 -2 -2 -2 -2 -2 -3 -3 -3 -3 -3 -2 -3 -3 -3 -3 -3 -4 -4 -5
2 2 2 2 1 1 1 1 1 1 1 1 0 0 0 -0 -1 -1 -2 -2 -2 -2 -2 -2 -2 -2 -3 -3 -3 -3 -3 -3 -3 -3 -3 -3 -3 -3 -3 -4 -4 -4 -4
1 1 1 1 1 1 1 1 0 0 0 -0 -0 -1 -1 -1 -1 -2 -2 -2 -2 -3 -3 -3 -3 -3 -3 -3 -3 -3 -3 -3 -4 -4 -4 -4 -4 -4 -4 -4 -4 -4 -4
0 0 -0 -0 -0 -0 -0 -0 -0 -0 -1 -1 -1 -1 -2 -2 -2 -2 -3 -3 -3 -3 -3 -3 -3 -3 -3 -3 -3 -4 -4 -4 -4 -5 -5 -5 -4 -4 -4 -4 -4 -4 -4
-1 -1 -1 -1 -1 -1 -1 -1 -1 -1 -1 -1 -2 -2 -2 -2 -3 -3 -3 -3 -3 -4 -4 -4 -4 -4 -4 -4 -4 -4 -4 -4 -5 -5 -5 -5 -5 -5 -5 -5 -5 -5 -5
-1 -2 -2 -2 -2 -2 -2 -2 -2 -2 -2 -2 -2 -3 -3 -3 -3 -3 -4 -4 -4 -4 -4 -4 -4 -4 -5 -5 -5 -4 -5 -5 -5 -5 -5 -5 -5 -6 -5 -5 -6 -6 -6
-2 -2 -2 -2 -2 -2 -2 -2 -2 -2 -2 -3 -3 -3 -3 -4 -4 -4 -4 -4 -4 -4 -4 -5 -5 -5 -5 -5 -5 -5 -5 -5 -6 -6 -6 -6 -6 -6 -6 -6 -6 -6 -6
-3 -3 -3 -3 -3 -3 -3 -3 -3 -3 -3 -3 -3 -3 -4 -4 -4 -4 -4 -4 -4 -4 -5 -5 -5 -5 -5 -5 -5 -6 -6 -6 -6 -6 -6 -6 -6 -6 -6 -6 -6 -6 -6
-3 -3 -3 -3 -3 -4 -4 -4 -4 -4 -4 -4 -4 -4 -4 -4 -4 -5 -5 -5 -5 -5 -5 -5 -5 -6 -6 -6 -6 -6 -6 -6 -6 -6 -6 -6 -6 -7 -7 -7 -7 -7 -7
-4 -4 -4 -4 -4 -4 -4 -4 -4 -4 -4 -4 -4 -4 -5 -5 -5 -5 -5 -5 -6 -5 -6 -6 -6 -6 -6 -6 -6 -6 -6 -6 -6 -6 -7 -7 -7 -7 -7 -7 -7 -7 -7
-4 -4 -5 -5 -5 -5 -5 -5 -5 -5 -5 -5 -5 -5 -5 -5 -5 -5 -6 -6 -6 -6 -6 -6 -6 -6 -6 -6 -7 -7 -7 -7 -7 -7 -7 -7 -7 -7 -7 -7 -7 -7 -7
-5 -5 -5 -5 -5 -5 -5 -5 -5 -5 -5 -5 -5 -5 -5 -6 -6 -6 -6 -6 -6 -6 -6 -6 -6 -6 -7 -7 -7 -7 -7 -7 -7 -7 -7 -7 -7 -7 -7 -7 -7 -7 -7
-5 -5 -5 -5 -5 -5 -5 -5 -5 -5 -5 -6 -6 -6 -6 -6 -6 -6 -6 -6 -6 -6 -6 -7 -7 -7 -7 -7 -7 -7 -7 -7 -7 -8 -8 -7 -7 -7 -7 -7 -7 -7 -7
-6 -6 -6 -6 -6 -6 -6 -6 -6 -6 -6 -6 -6 -6 -6 -6 -6 -6 -6 -6 -7 -6 -7 -7 -7 -7 -7 -7 -7 -7 -7 -7 -8 -8 -8 -8 -8 -7 -7 -7 -7 -7 -7
-6 -6 -6 -6 -6 -6 -6 -6 -6 -6 -6 -6 -6 -6 -7 -7 -7 -7 -7 -7 -7 -7 -7 -7 -7 -7 -7 -7 -7 -7 -7 -7 -7 -8 -8 -8 -7 -7 -7 -7 -7 -7 -7
-7 -7 -7 -7 -7 -6 -7 -7 -7 -7 -6 -6 -7 -7 -7 -7 -7 -7 -7 -7 -7 -7 -7 -7 -7 -7 -7 -7 -7 -7 -7 -7 -8 -8 -8 -8 -7 -7 -7 -8 -7 -8 -8
Wind_Speed
4 5 5 5 5 5 4 4 4 4 4 4 4 3 3 2 2 2 2 2 2 1 2 2 3 3 3 2 2 2 3 4 8 8 6 5 6 7 9 10 11 11 13
4 4 5 5 5 5 4 4 4 4 4 4 4 3 2 2 2 2 2 2 2 2 2 2 3 3 3 3 3 3 4 5 6 9 8 6 7 7 8 8 10 11 12
4 5 4 5 5 5 4 4 4 4 3 3 3 3 2 2 1 1 2 2 2 2 2 3 3 3 4 4 4 5 5 5 5 7 9 7 7 6 7 8 9 8 11
4 5 4 4 4 4 4 4 4 4 3 3 2 2 1 1 1 1 1 1 1 2 2 3 3 4 5 5 5 5 5 5 6 6 8 8 7 6 6 7 8 7 9
5 5 4 3 4 4 4 4 3 3 3 2 2 1 1 1 1 1 1 1 1 2 2 3 4 5 6 6 5 5 5 5 6 6 7 8 7 6 7 6 9 9 9
4 4 4 4 4 4 3 3 3 3 3 2 2 1 0 1 1 2 2 1 1 2 3 3 4 5 6 8 9 10 8 7 7 7 7 8 9 8 7 8 8 9 8
4 4 4 4 4 3 3 3 3 3 2 2 1 1 0 1 2 2 3 2 1 2 3 4 4 5 7 5 8 10 10 11 11 9 9 9 9 9 9 9 8 9 10
3 3 3 3 4 3 3 3 3 2 2 1 1 1 0 2 3 3 3 2 1 2 3 3 4 6 6 7 6 6 7 8 9 8 8 9 9 9 9 9 9 9 9
3 3 3 3 4 4 3 3 2 2 1 1 1 1 0 2 3 3 3 1 1 3 3 4 5 6 9 10 7 6 8 8 9 11 12 12 14 14 11 6 7 7 9
2 2 2 3 4 4 3 3 2 2 1 1 0 0 1 2 3 4 3 1 2 3 3 4 7 8 10 11 6 6 8 8 7 8 9 10 10 10 12 7 6 7 7
2 2 2 2 2 3 3 2 2 2 1 1 0 1 1 2 3 4 4 2 2 3 4 4 5 10 11 11 9 6 9 9 7 7 7 7 6 6 6 6 6 6 7
2 2 2 1 1 2 3 2 2 2 2 1 0 1 1 2 3 4 5 5 5 3 4 5 6 10 11 11 8 9 11 9 5 5 6 6 6 6 6 6 8 8 8
2 2 1 1 1 2 3 2 2 2 2 1 1 1 2 2 3 5 5 6 6 4 5 7 9 10 10 8 8 10 8 5 4 5 6 6 6 6 6 6 6 7 7
2 1 1 1 1 1 1 1 2 2 2 2 2 2 2 2 2 3 3 4 5 5 5 6 8 8 7 7 7 6 4 4 5 5 6 5 5 5 5 5 5 5 5
1 1 1 1 1 1 0 1 1 2 3 3 2 2 2 3 4 6 5 4 4 4 4 3 3 4 4 4 4 4 4 4 5 4 5 5 5 5 5 4 4 4 5
2 1 1 1 1 0 1 2 3 2 2 3 3 3 3 4 6 6 6 7 7 6 4 3 4 4 5 5 5 5 5 5 5 5 5 5 5 6 6 5 4 4 5
2 1 0 0 0 0 1 0 2 4 4 4 4 4 4 5 6 6 6 6 6 5 3 3 4 4 5 5 5 5 5 5 5 4 5 5 5 5 5 5 5 5 5
1 1 0 1 1 1 1 1 1 1 2 3 4 5 5 5 6 6 6 5 3 3 2 4 4 5 5 5 5 5 5 5 5 5 5 4 4 5 5 5 5 5 6
1 1 0 0 0 0 1 1 1 1 2 2 3 4 5 5 5 5 5 2 3 4 4 4 4 5 5 5 5 5 5 5 5 5 4 5 4 4 5 5 5 7 6
0 0 1 0 0 0 1 1 1 1 2 2 3 3 3 3 3 4 3 3 3 4 4 5 5 5 5 5 5 5 5 4 4 4 4 4 4 4 5 5 5 5 5
1 1 1 1 0 1 1 1 2 2 2 2 3 4 5 3 3 4 4 4 4 5 5 5 5 5 5 5 4 4 5 5 4 4 4 4 4 4 4 4 5 5 5
0 1 1 1 1 1 2 2 2 2 2 3 3 4 6 3 3 3 4 4 4 4 4 4 5 5 5 4 4 4 4 5 4 4 4 4 4 4 4 4 4 4 5
0 1 1 2 2 2 2 2 2 2 2 3 3 3 4 3 4 4 4 4 4 4 5 5 4 4 5 5 5 4 5 5 5 4 4 4 4 4 4 4 4 5 5
1 1 1 2 2 2 2 2 2 3 2 3 3 3 4 4 4 5 5 4 4 4 5 5 5 6 7 6 6 6 6 7 7 6 5 4 4 4 4 3 4 5 5
1 1 1 1 2 2 2 2 2 3 3 3 3 4 4 4 4 5 4 4 5 5 6 6 5 6 7 7 7 7 8 9 9 7 5 3 4 4 3 3 4 4 4
1 1 1 2 2 2 2 2 3 3 3 3 3 4 4 4 4 4 4 4 4 5 5 6 6 7 8 7 8 9 9 9 9 9 6 3 2 2 2 2 3 4 4
Wind_Direction
154 158 155 158 155 147 151 159 161 155 153 154 157 156 162 173 170 169 207 206 197 239 267 259 272 277 281 285 279 272 269 262 274 287 286 293 293 299 310 311 308 306 306
148 146 149 143 139 141 147 152 150 147 149 151 148 146 156 162 162 183 212 222 213 237 261 268 277 286 283 283 279 274 274 269 270 285 293 295 291 295 298 298 307 305 302
136 137 139 139 142 146 149 143 138 136 135 134 135 146 162 173 178 206 216 226 235 252 260 265 277 278 279 279 277 276 277 283 273 276 286 289 290 295 300 297 295 296 302
129 129 138 150 148 145 139 134 133 132 133 134 137 150 159 167 185 201 202 215 254 278 277 274 277 272 271 275 279 277 281 284 282 281 286 291 292 295 297 301 305 302 302
127 129 140 137 131 130 131 132 127 126 126 128 123 111 125 181 203 198 206 233 248 283 295 289 285 291 290 290 291 285 287 286 289 290 290 294 295 303 301 298 300 304 300
129 135 136 131 130 132 137 133 126 119 116 116 128 138 142 298 283 281 276 240 261 273 290 298 300 300 301 303 302 299 293 288 287 285 287 288 290 291 293 296 297 304 303
127 131 135 136 134 136 134 128 129 127 120 124 143 142 191 266 293 300 309 309 269 277 286 294 303 304 306 295 295 299 296 293 289 282 281 282 285 285 288 289 289 290 288
130 135 139 138 139 137 137 143 140 137 142 149 166 173 195 287 308 318 324 349 309 293 288 282 286 289 290 293 291 295 292 290 286 283 274 276 279 280 276 280 286 290 285
130 141 148 153 152 150 155 162 159 147 151 167 188 189 242 299 313 316 319 316 304 296 289 287 288 285 295 304 304 299 299 296 297 296 293 293 294 294 294 293 293 296 297
143 151 145 151 158 166 173 171 160 155 169 166 165 283 272 289 296 308 316 295 292 295 297 294 297 300 302 307 303 295 295 295 300 304 303 302 298 297 298 284 276 283 291
128 119 121 134 161 172 168 166 156 145 124 105 352 302 276 285 296 304 306 301 275 287 295 299 297 305 307 308 307 295 293 301 300 298 299 298 298 294 290 283 268 262 273
100 108 117 120 158 156 155 160 154 147 138 163 247 304 300 288 301 299 305 308 303 293 291 290 292 303 307 309 308 306 310 315 307 301 301 299 300 298 295 292 285 273 263
104 116 128 125 130 153 156 159 156 161 176 217 224 267 297 297 296 304 305 308 307 302 289 293 301 308 311 309 308 312 316 311 302 299 298 298 297 295 297 301 297 292 287
108 116 126 131 116 109 149 174 182 196 205 224 237 259 286 295 293 290 288 297 303 304 303 302 309 311 311 309 310 313 312 299 297 291 296 297 300 302 300 301 303 309 307
92 90 87 92 104 54 12 239 230 223 220 223 228 235 253 274 280 294 300 292 294 294 310 310 314 313 313 311 310 308 305 303 304 299 299 305 307 306 305 305 301 307 302
94 68 63 68 61 61 26 1 357 339 314 312 308 297 291 295 304 307 309 310 312 316 323 309 302 301 300 302 306 309 306 303 302 301 300 301 305 307 308 310 307 305 304
133 131 111 93 89 318 331 330 336 349 353 347 333 321 318 315 316 316 318 322 321 327 320 302 298 298 298 298 299 299 301 302 300 298 297 298 300 304 306 307 308 309 306
123 127 121 185 213 234 261 284 276 291 317 328 325 318 321 322 321 320 324 333 325 328 304 297 297 298 297 294 293 295 296 300 299 297 294 294 295 298 303 305 307 305 307
99 138 163 174 220 253 271 292 288 281 288 302 316 316 320 322 322 323 332 324 301 302 302 297 294 294 293 291 288 289 290 290 291 294 294 296 296 298 302 304 305 307 310
73 29 24 44 10 330 304 293 285 277 281 287 293 298 309 322 321 318 320 311 302 298 298 297 298 294 292 290 288 289 291 290 290 290 290 292 292 293 296 303 305 305 305
1 357 13 10 312 286 276 277 283 282 287 293 294 299 312 316 305 303 306 303 298 297 297 297 296 295 292 289 286 286 287 288 288 288 290 290 291 294 296 299 303 303 303
21 345 330 305 295 294 289 284 292 289 288 293 306 309 312 321 305 301 300 301 300 297 295 293 292 290 289 286 286 287 289 289 289 288 287 287 288 290 294 298 303 305 304
19 342 333 321 311 308 323 321 309 298 296 300 305 312 314 312 307 305 305 306 305 305 302 297 298 300 298 287 279 276 279 282 282 280 284 287 288 289 291 294 299 304 308
346 336 324 321 324 321 312 307 303 300 301 305 309 311 309 308 308 308 310 310 312 310 307 303 299 297 300 300 291 282 277 280 281 277 275 278 283 286 287 290 295 297 300
2 341 325 320 318 311 306 304 302 304 308 309 310 311 311 311 311 312 313 313 315 313 311 307 301 299 300 303 299 293 298 302 301 293 283 274 276 278 281 285 292 299 302
351 337 328 325 314 297 289 292 296 301 304 309 311 310 309 309 310 313 314 315 316 314 312 309 303 302 302 301 300 304 310 312 314 312 302 290 284 287 293 292 295 299 304
Height
1467 1469 1472 1473 1475 1477 1479 1480 1482 1483 1484 1485 1486 1487 1488 1488 1488 1488 1488 1488 1487 1487 1486 1486 1485 1484 1482 1481 1480 1478 1476 1474 1469 1464 1463 1461 1458 1455 1452 1450 1447 1443 1440
1465 1467 1468 1470 1472 1474 1475 1477 1478 1480 1481 1482 1483 1483 1484 1484 1484 1484 1484 1484 1483 1482 1482 1481 1480 1479 1477 1476 1474 1472 1470 1468 1465 1460 1456 1454 1452 1449 1446 1443 1440 1437 1434
1462 1464 1466 1467 1469 1471 1472 1474 1475 1476 1477 1478 1479 1479 1479 1480 1480 1480 1480 1479 1478 1478 1477 1476 1475 1474 1472 1470 1468 1466 1464 1462 1460 1456 1451 1449 1446 1444 1440 1437 1434 1431 1428
1460 1462 1463 1465 1466 1468 1469 1471 1472 1473 1474 1474 1475 1475 1475 1476 1476 1476 1475 1474 1474 1473 1472 1471 1470 1468 1467 1465 1463 1461 1459 1456 1454 1451 1447 1443 1440 1438 1435 1431 1426 1424 1421
1458 1459 1461 1462 1464 1465 1467 1468 1469 1470 1470 1471 1471 1471 1472 1472 1472 1471 1471 1470 1469 1468 1467 1466 1465 1464 1462 1460 1458 1456 1454 1451 1448 1445 1442 1438 1435 1432 1429 1425 1421 1417 1414
1455 1457 1459 1460 1461 1462 1464 1465 1466 1466 1467 1467 1468 1468 1468 1468 1468 1467 1467 1466 1464 1463 1462 1461 1460 1458 1457 1455 1453 1451 1449 1446 1443 1440 1437 1433 1430 1427 1424 1421 1417 1412 1407
1453 1454 1456 1457 1459 1460 1461 1462 1462 1463 1463 1464 1464 1464 1464 1464 1464 1463 1463 1462 1460 1459 1457 1456 1454 1453 1451 1449 1447 1445 1443 1441 1439 1436 1432 1428 1425 1422 1419 1416 1412 1409 1404
1451 1452 1453 1455 1456 1457 1458 1459 1459 1460 1460 1460 1461 1461 1460 1460 1460 1459 1458 1457 1455 1454 1453 1451 1449 1447 1446 1444 1441 1439 1436 1434 1432 1430 1427 1423 1420 1417 1414 1411 1408 1403 1399
1449 1450 1451 1452 1453 1454 1455 1456 1456 1457 1457 1457 1457 1457 1457 1456 1456 1455 1454 1452 1451 1449 1448 1447 1445 1443 1441 1439 1436 1433 1430 1428 1426 1424 1421 1418 1415 1412 1409 1406 1402 1398 1393
1447 1448 1449 1450 1451 1451 1452 1453 1453 1453 1454 1454 1453 1454 1453 1452 1452 1451 1450 1448 1446 1445 1443 1442 1440 1438 1436 1434 1432 1428 1425 1422 1420 1417 1415 1412 1409 1406 1404 1401 1398 1394 1390
1445 1446 1447 1448 1448 1449 1449 1450 1450 1450 1450 1450 1450 1450 1449 1449 1448 1447 1446 1445 1443 1441 1439 1437 1435 1434 1431 1429 1427 1424 1421 1418 1414 1411 1409 1406 1403 1401 1398 1396 1393 1390 1386
1443 1443 1444 1445 1446 1446 1446 1447 1447 1447 1447 1447 1446 1445 1445 1445 1444 1443 1442 1441 1440 1438 1435 1433 1431 1429 1427 1424 1422 1419 1416 1413 1410 1407 1404 1401 1398 1396 1393 1390 1388 1385 1383
1441 1441 1442 1442 1443 1443 1444 1444 1444 1444 1443 1443 1442 1441 1441 1441 1440 1439 1438 1437 1435 1434 1431 1429 1427 1425 1422 1419 1417 1414 1411 1408 1405 1402 1399 1397 1394 1391 1388 1385 1382 1380 1378
1439 1439 1440 1440 1440 1441 1441 1441 1441 1441 1440 1439 1439 1438 1437 1437 1436 1435 1434 1432 1431 1429 1427 1425 1423 1420 1418 1415 1412 1409 1407 1404 1401 1398 1395 1393 1390 1387 1384 1381 1378 1375 1371
1437 1437 1437 1437 1437 1438 1438 1438 1438 1438 1438 1437 1436 1436 1435 1433 1433 1432 1431 1429 1427 1425 1423 1420 1417 1415 1412 1410 1407 1405 1402 1400 1397 1395 1392 1389 1386 1383 1380 1378 1374 1371 1368
1435 1435 1435 1435 1435 1435 1435 1435 1436 1436 1436 1435 1434 1434 1432 1431 1430 1429 1427 1426 1424 1422 1419 1416 1413 1411 1408 1406 1403 1401 1399 1396 1394 1391 1388 1385 1382 1379 1377 1374 1371 1368 1365
1433 1433 1433 1433 1433 1433 1432 1432 1432 1432 1432 1432 1431 1430 1429 1428 1426 1425 1424 1422 1420 1418 1415 1412 1410 1407 1405 1402 1400 1397 1395 1393 1390 1388 1385 1382 1380 1377 1374 1371 1368 1365 1362
1432 1431 1431 1431 1431 1431 1430 1430 1429 1429 1428 1427 1428 1427 1426 1424 1423 1422 1420 1418 1415 1413 1411 1409 1406 1404 1402 1399 1397 1394 1392 1389 1387 1385 1382 1379 1377 1374 1371 1368 1365 1363 1359
1430 1430 1430 1429 1429 1429 1428 1428 1427 1427 1426 1425 1424 1423 1422 1421 1420 1418 1416 1414 1412 1409 1407 1405 1403 1401 1398 1396 1393 1391 1389 1386 1384 1381 1379 1376 1374 1371 1368 1366 1363 1360 1358
1428 1428 1428 1427 1427 1427 1426 1426 1425 1424 1424 1422 1421 1420 1419 1417 1416 1414 1412 1410 1408 1406 1404 1402 1399 1397 1395 1392 1390 1388 1385 1383 1380 1378 1375 1373 1371 1368 1366 1363 1361 1358 1355
1427 1426 1426 1426 1425 1425 1424 1424 1423 1422 1421 1420 1419 1418 1417 1415 1413 1411 1409 1407 1405 1402 1400 1398 1396 1393 1391 1389 1387 1384 1382 1379 1377 1375 1372 1370 1368 1366 1364 1361 1359 1356 1353
1425 1425 1424 1424 1423 1423 1422 1422 1421 1420 1419 1417 1416 1415 1414 1412 1410 1408 1406 1404 1401 1399 1397 1395 1392 1390 1388 1386 1383 1381 1378 1376 1374 1372 1370 1367 1366 1363 1361 1359 1356 1354 1352
1424 1423 1422 1422 1421 1421 1420 1419 1418 1417 1416 1415 1414 1412 1410 1408 1406 1404 1402 1400 1398 1396 1393 1391 1389 1387 1385 1383 1380 1378 1376 1373 1371 1369 1367 1365 1363 1361 1359 1356 1354 1352 1350
1422 1421 1420 1419 1419 1418 1417 1416 1415 1414 1413 1412 1411 1409 1407 1405 1403 1401 1399 1397 1395 1393 1390 1388 1386 1384 1381 1379 1377 1375 1373 1371 1369 1367 1365 1363 1360 1358 1356 1354 1353 1351 1349
1420 1419 1418 1417 1416 1415 1414 1413 1413 1412 1411 1409 1408 1406 1404 1402 1400 1398 1396 1394 1392 1390 1388 1385 1383 1381 1379 1377 1375 1372 1370 1368 1366 1364 1362 1360 1358 1356 1355 1353 1351 1350 1348
1417 1417 1416 1415 1414 1413 1412 1411 1410 1409 1408 1407 1405 1403 1402 1400 1398 1396 1393 1391 1389 1387 1385 1383 1381 1379 1377 1374 1372 1370 1368 1366 1364 1362 1360 1358 1356 1355 1353 1352 1350 1348 1347